sat.trackr.live / text

‹ back to catalog

STARLINK-4556

NORAD 53578 · 2022-101BD

PAYLOAD ACTIVE UNKNOWN

§ Identity

Operator
Country
US
Launch date
2022-08-19
Launch site
AFETR
Launch vehicle
Mass (kg)
RCS (m²)

Purposes: comms

External: N2YO · Heavens-Above · Gunter

§ Orbital elements

Epoch: 2026-05-25T02:04:09.772608Z

Period
95.44 min
Inclination
53.2125°
Eccentricity
0.0001641
Mean motion
15.08840197 rev/d
Perigee alt
538.6 km
Apogee alt
540.9 km
Semi-major
6,917.9 km
B*
-2.0889e-5
RAAN
70.7978°
Arg perigee
86.1350°
Mean anomaly
273.9830°
Rev number
20,798

§ Raw data

STARLINK-45561 53578U 22101BD  26145.08622422 -.00000621  00000+0 -20889-4 0  99992 53578  53.2125  70.7978 0001641  86.1350 273.9830 15.08840197207982

JSON: /api/v1/satellites/53578 · /tle

For live sub-satellite position, see the globe view (requires WebGL).

§ Visibility from observer

Set your observer location to see the next 7 days of passes ≥ 10°. The values pass through the URL so the page stays shareable.

No JS? Fill the form by hand. The geolocation button needs JavaScript.